Regional Weather Roundup
Issued by NWS Lake Charles, LA

Home | Current Version | Previous Version | Text Only | Print | Product List | Glossary On
Versions: 1 2 3 4 5 6 7 8 9 10 11 12 13 14 15 16 17 18 19 20 21 22 23 24 25 26 27 28 29 30 31 32 33 34 35 36 37 38 39 40 41 42 43 44 45 46 47 48 49 50
600
ASUS44 KLCH 291510
RWRLCH
REGIONAL WEATHER ROUNDUP
NATIONAL WEATHER SERVICE LAKE CHARLES LA
1000 AM CDT MON MAY 29 2017

Note: "fair" indicates few or no clouds below 12,000 feet with no
significant weather and/or obstructions to visibility.


ACROSS SOUTHEAST TEXAS

CITY           SKY/WX    TMP DP  RH WIND       PRES   REMARKS
BEAUMONT       CLOUDY    73  69  87 N7        30.04R
BEAUMONT CITY  FAIR      72  67  85 MISG      30.05R
ORANGE         CLOUDY    72  70  94 NE3       30.05R
JASPER         CLOUDY    72  69  89 CALM      30.07S
$$

ACROSS CENTRAL LOUISIANA

CITY           SKY/WX    TMP DP  RH WIND       PRES   REMARKS
LEESVILLE      CLOUDY    71  67  87 NE3       30.04F
FULLERTON      FAIR      73  67  81 VRB3      30.02F
ALEXANDRIA INT CLOUDY    72  67  84 SE7       30.02F
ESLER FIELD    NOT AVBL
DERIDDER       FAIR     N/A N/A N/A NE3       30.07S
OAKDALE        LGT RAIN  71  68  91 NE6       30.04S
OPELOUSAS      FAIR      70  66  88 NE5       30.03F
$$

ACROSS SOUTHWEST AND SOUTH CENTRAL LOUISIANA

CITY           SKY/WX    TMP DP  RH WIND       PRES   REMARKS
SULPHUR        CLOUDY    75  71  86 N5        30.04S
LAKE CHARLES   CLOUDY    75  69  81 N8        30.03S
CHENNAULT INT  NOT AVBL
CAMERON PHI    SUNNY     79  66  65 S8        30.02R
DEQUINCY       FAIR      69  66  90 NE3       30.06R
JENNINGS       FAIR      73  67  81 N5        30.03S
LAFAYETTE      CLOUDY    74  68  81 NW7       30.02S
NEW IBERIA     PTSUNNY   73  67  81 VRB3      30.02R
ABBEVILLE      FAIR      73  72  94 CALM      30.02S
PATTERSON      NOT AVBL
SALT POINT       N/A     73  69  87 SE13      29.99R
$$

SELECTED SITES ACROSS THE REGION

CITY           SKY/WX    TMP DP  RH WIND       PRES   REMARKS
HOUSTON BUSH   CLOUDY    72  68  87 N5        30.04R
HOUSTON HOBBY  CLOUDY    74  71  91 CALM      30.04R
GALVESTON      CLOUDY    77  71  82 S22G29    30.03R HAZE
COLLEGE STAT   CLOUDY    72  69  90 N5        30.07S
CONROE         CLOUDY    70  68  93 N5        30.06R
HUNTSVILLE     CLOUDY    72  68  87 CALM      30.07R
LUFKIN         CLOUDY    71  68  90 CALM      30.08R
SHREVEPORT     CLOUDY    72  68  87 S6        30.07R
MONROE         CLOUDY    70  66  87 S7        30.08R
NATCHEZ MS     CLOUDY    70  65  84 CALM      30.08F
BATON ROUGE    CLOUDY    71  68  90 N5        30.03F
N.O. INTL ARPT CLOUDY    71  69  93 SE12      30.03R
SLIDELL        LGT RAIN  73  71  93 SE3       30.04S
$$

MARINE REPORTS

STATION/POSITION TIME  SKY/WX   TEMP    WIND        PRES    VSBY
                                AIR SEA DIR/SP/G
                 (UTC)          (F)     (DEG/KT/KT) (MB)    (MI)
BUOY 30 S HIGH I 1350            77 79  180/ 21/ 25 1014.8
WVE H/P(F/S)=  7/ 6

SEA RIM ST PARK  1500            77     230/ 13/ 17 1017.4R
PORT ARTHUR      1442            77 79  220/  1/  2 1017.2R
SABINE PASS N    1442            79 82  210/ 10/ 14 1018.2R
TEXAS POINT      NOT AVBL
CALCASIEU PASS   1448            80 80  210/  9/ 10   N/A
LK CHARLES BEACH 1448            72 78              1017.6R
MARSH ISLAND     1400            76                   N/A
FRESH WATER LOCK 1448            78 82  130/  8/ 12 1016.6R
AMERADA PASS     1448            73 74  130/  7/ 11 1016.1R
$$




USA.gov is the U.S. government's official web portal to all federal, state and local government web resources and services.